Theta_e
342 340 341 345 345 344 343 343 343 342 340 339 335 336 338 332 331 329 330 330 329 330 330 331 333 335 335 334 333 332 330 332 336 338 337 336 337 337 335 336 340 341 341 339 337 335 334 335 335 335 336 335 334 331 329 330 329 329 329 329 329 330 332 333 333 333 334 337 338 337 337 334 333 334 334 334 333 333 334 334 334 334 334 334 333
342 340 342 345 344 344 343 343 343 341 340 340 338 339 338 327 325 326 328 329 330 329 328 329 330 335 339 339 337 335 332 333 338 338 337 338 339 338 336 337 340 340 341 338 336 335 335 336 336 337 336 330 328 329 332 333 333 333 333 332 330 329 330 332 333 332 333 335 336 336 335 334 334 335 336 335 334 334 334 334 334 334 334 334 333
340 342 343 343 344 345 343 344 342 341 340 340 339 340 335 324 325 328 331 332 332 330 327 326 325 331 337 340 338 338 335 334 338 337 337 339 340 339 338 338 339 339 339 338 337 336 335 337 338 339 335 328 329 333 335 334 334 334 334 334 334 331 329 330 331 332 332 334 335 335 335 334 334 334 335 335 335 334 334 334 334 335 334 334 333
339 343 342 342 343 344 343 343 342 340 340 340 340 341 333 324 326 330 333 333 332 329 324 322 322 329 336 338 337 338 336 335 337 337 337 340 341 340 338 337 338 339 338 338 336 335 335 337 339 339 333 330 333 334 334 333 332 331 331 332 334 334 330 329 330 331 332 333 334 336 337 336 335 334 334 335 335 334 334 334 334 334 334 334 334
341 344 342 343 343 343 343 343 342 340 340 340 340 341 332 324 327 331 334 333 332 329 324 322 322 329 336 337 336 337 336 336 338 337 338 340 340 339 337 335 337 338 338 337 335 335 336 337 339 337 333 333 333 333 332 331 329 328 329 330 332 334 332 329 329 330 332 332 334 337 337 337 336 334 333 334 334 334 334 333 332 332 332 332 333
342 343 342 345 344 344 343 343 343 340 340 340 341 341 333 326 329 333 334 333 332 328 325 329 329 330 334 336 335 336 335 336 337 339 340 340 339 338 336 337 338 338 338 336 334 335 336 337 338 334 332 332 331 331 330 329 328 328 330 332 333 333 332 329 329 330 331 332 335 337 337 337 337 334 333 334 334 334 334 332 331 330 330 330 332
342 340 342 344 344 344 342 343 342 340 340 340 341 341 336 328 330 334 335 334 332 328 327 331 335 334 335 336 335 335 335 335 336 338 339 339 339 337 336 338 338 337 337 336 335 335 336 337 335 331 331 331 330 329 329 328 328 329 331 333 333 333 332 329 330 330 330 335 337 337 337 337 337 336 334 334 334 334 334 333 333 332 331 330 332
341 340 342 343 343 344 342 343 342 340 339 340 341 342 339 330 330 336 336 335 332 329 328 331 336 336 335 336 335 335 335 335 337 338 338 339 339 337 337 337 338 338 336 335 336 336 336 335 332 330 330 329 329 328 327 328 328 329 331 333 334 332 331 330 330 330 331 336 338 337 337 337 337 336 334 334 334 334 334 334 334 333 333 332 333
341 340 341 342 343 344 342 342 342 339 339 339 341 342 341 333 331 337 337 336 334 330 328 330 335 336 336 336 336 336 336 336 337 339 340 340 338 336 336 337 338 338 337 335 335 336 334 331 329 329 329 328 328 326 326 327 327 329 330 332 333 331 330 330 329 330 334 337 337 337 337 337 337 336 335 334 334 334 334 335 334 334 334 334 334
341 341 341 342 343 343 342 343 342 340 339 339 341 342 342 336 333 338 338 337 335 330 328 331 333 335 337 336 336 337 337 337 337 339 340 340 337 336 337 337 338 337 337 335 334 334 330 327 328 328 328 328 326 325 326 326 327 329 330 332 333 331 330 330 330 332 335 337 337 337 336 336 337 337 335 334 334 333 334 334 334 334 334 334 334
341 342 341 342 343 343 341 343 341 339 339 339 341 342 342 338 335 339 338 337 336 333 330 331 333 333 336 337 336 337 337 336 336 338 340 339 336 336 337 337 337 336 335 334 333 331 328 327 327 327 328 327 325 325 325 325 326 329 330 332 332 331 331 330 331 333 335 337 337 338 336 337 337 336 336 335 335 334 334 334 334 334 334 334 334
342 342 342 342 343 343 341 342 341 339 339 339 341 342 342 339 337 339 339 338 337 337 333 330 331 332 336 337 336 336 336 335 335 337 338 339 336 335 336 336 335 335 334 331 330 329 327 327 327 327 328 325 324 324 324 325 327 330 331 332 332 331 331 330 332 334 335 337 337 338 337 338 337 336 336 335 334 334 335 335 335 334 334 335 334
342 342 341 341 342 342 341 341 341 340 340 339 341 342 342 340 338 339 339 338 337 339 336 331 330 331 334 335 334 334 334 335 337 338 337 338 336 334 334 334 334 334 332 329 328 328 328 328 327 327 327 325 325 324 324 325 328 331 331 332 332 331 331 331 332 334 336 337 336 337 337 338 336 335 336 335 334 335 335 335 335 334 335 335 334
341 342 340 340 342 342 341 341 340 340 340 339 341 342 342 340 338 339 340 338 337 339 338 334 331 330 333 333 332 333 335 336 337 338 338 337 337 335 333 332 333 332 330 328 329 328 328 328 328 327 326 325 324 324 325 326 330 332 331 332 332 331 331 331 332 335 336 335 336 337 337 337 336 336 337 336 335 336 336 335 335 335 335 334 334
339 341 341 340 342 342 340 340 340 341 341 340 341 342 342 341 339 339 340 339 338 339 339 336 332 330 332 333 333 333 334 335 337 337 338 337 337 337 334 332 330 329 328 328 329 328 329 329 328 327 326 325 324 324 326 328 331 332 332 332 332 332 332 332 333 335 335 335 336 337 338 336 335 336 336 337 336 335 335 335 335 335 334 334 333
339 341 341 340 341 342 340 340 340 340 341 340 340 341 341 341 340 339 340 339 338 339 339 337 334 332 331 331 333 334 334 334 335 337 338 337 337 337 335 334 329 326 327 328 328 329 329 328 328 327 326 325 323 324 327 330 332 332 332 332 332 333 333 333 334 335 336 336 337 337 338 336 335 336 336 336 336 335 335 335 335 335 334 333 333
340 341 341 340 341 342 340 340 340 340 340 340 340 341 341 341 340 340 340 339 338 339 339 337 336 335 333 330 330 333 335 334 335 336 338 337 337 336 335 335 330 325 327 328 328 329 328 328 327 327 327 325 323 324 328 331 333 333 333 333 333 333 333 333 334 336 336 335 336 337 337 336 336 336 336 336 336 336 336 335 334 334 333 333 332
340 340 340 341 341 341 341 340 340 340 341 341 340 341 341 341 341 340 340 339 338 339 339 337 336 336 334 329 327 329 332 335 336 336 337 337 337 336 335 335 331 326 327 328 327 328 328 328 327 327 327 325 324 323 327 331 333 334 334 334 334 334 334 333 334 335 335 335 337 338 337 336 336 336 336 336 336 335 335 334 334 334 333 332 331
340 340 340 341 341 341 341 340 340 341 341 341 341 340 340 341 340 340 340 340 339 339 338 337 336 335 332 330 327 326 329 334 336 336 336 336 335 335 335 335 332 326 327 328 327 328 327 328 327 327 327 324 323 323 326 330 333 334 335 335 335 334 334 334 336 337 337 337 339 339 337 336 336 336 336 336 335 335 334 334 334 333 332 331 330
340 340 340 341 340 341 341 340 341 342 342 342 342 341 341 340 340 340 340 339 339 339 338 336 335 334 332 331 329 327 329 332 334 334 335 334 334 336 336 335 333 328 327 328 327 328 328 328 327 327 326 323 322 324 326 328 332 334 335 336 335 336 336 336 337 338 339 338 339 339 336 336 336 336 336 336 335 334 334 334 333 332 332 330 330
340 339 340 341 341 341 340 339 341 342 342 342 342 342 341 341 341 340 340 339 339 338 337 336 335 334 334 333 332 331 331 332 333 333 334 334 334 336 336 334 334 329 327 328 327 328 328 328 328 326 324 322 322 323 326 328 330 332 335 335 336 337 337 337 338 339 339 339 339 338 336 336 337 336 336 335 334 334 334 333 332 332 331 329 328
340 340 340 341 341 341 340 340 341 342 342 342 342 342 342 342 342 341 341 340 339 338 337 336 335 335 334 333 333 333 332 332 332 333 335 335 334 335 335 334 334 330 327 328 328 328 329 327 327 325 322 321 322 324 327 330 330 332 334 334 336 338 338 337 338 338 339 339 339 337 336 336 336 336 335 335 334 333 333 333 332 331 330 329 326
340 340 341 341 340 341 341 340 341 341 341 342 342 341 342 342 342 342 341 340 340 339 337 335 335 334 334 333 333 331 331 331 330 331 334 334 334 333 334 334 333 331 328 328 328 328 328 327 325 322 321 320 322 327 329 333 333 331 333 335 337 338 338 337 337 338 339 338 338 336 336 336 335 335 334 334 334 333 333 332 331 330 329 326 319
340 340 340 341 340 341 341 340 341 341 341 341 341 341 341 342 342 341 341 340 340 339 336 334 334 333 333 332 332 330 329 331 330 330 332 333 333 333 333 333 333 332 328 328 329 329 328 325 323 320 320 322 326 331 332 334 334 333 335 336 337 338 338 338 337 338 338 337 337 336 335 335 335 334 334 334 333 333 332 331 330 328 325 316 307
339 339 339 340 340 340 341 340 341 340 340 340 341 341 341 342 342 341 341 340 340 338 335 333 333 332 331 331 330 330 330 330 331 331 332 332 331 332 332 332 333 332 329 329 329 328 325 323 324 322 322 327 331 333 333 333 333 335 336 336 337 338 338 337 336 336 336 336 335 335 335 335 334 333 333 333 333 333 331 330 329 325 314 304 300
339 339 339 339 340 340 340 341 340 340 340 339 340 341 341 342 342 341 340 340 339 338 334 333 332 330 329 329 326 327 329 328 330 332 331 331 331 331 332 332 333 331 329 329 328 326 323 323 327 328 327 330 333 333 334 333 333 336 336 336 337 337 337 337 335 335 335 334 334 334 334 334 333 333 332 332 332 331 330 329 326 317 305 299 299
339 339 338 339 339 339 339 340 340 339 340 339 339 340 341 341 341 340 340 339 338 336 334 330 326 322 321 322 318 321 324 323 327 331 331 330 331 331 332 332 330 328 327 326 324 323 323 327 331 332 332 333 334 334 334 334 335 336 336 336 337 337 337 336 334 334 334 333 332 333 332 332 332 332 331 332 331 329 328 324 317 308 302 303 304
339 338 338 338 338 338 339 340 339 339 340 339 339 340 341 340 340 339 339 339 337 335 331 323 316 314 315 315 312 314 317 316 321 328 330 330 330 329 328 328 326 324 324 323 322 322 326 332 334 334 334 334 334 334 334 335 336 336 336 335 336 336 335 334 333 333 332 332 330 328 327 327 328 328 329 328 327 325 320 315 310 307 306 308 309
339 338 338 337 338 338 338 339 339 339 339 339 339 340 340 340 340 338 339 338 336 333 323 313 314 318 319 315 313 314 315 316 317 322 326 328 327 325 324 324 323 322 322 322 322 326 331 335 336 336 335 334 334 334 335 335 337 336 335 335 335 335 334 333 331 330 329 329 327 323 321 322 322 322 322 322 321 319 317 315 314 313 312 312 310
339 338 338 338 337 337 338 338 338 338 338 339 339 340 340 339 339 338 339 337 335 329 313 311 322 327 326 321 319 318 317 318 318 318 320 321 322 322 323 323 323 322 321 322 326 331 335 336 336 336 335 335 335 334 335 336 337 336 336 335 335 335 332 330 328 326 325 325 323 319 318 319 318 317 316 317 318 317 319 320 318 318 317 315 313
339 339 338 338 337 337 338 337 337 338 338 339 338 339 339 339 339 338 339 337 335 324 307 318 331 333 332 330 330 329 327 327 325 323 321 321 321 320 320 320 321 320 320 325 331 334 336 336 336 336 336 336 335 334 335 337 337 336 335 335 334 333 329 326 325 324 323 322 321 319 318 318 315 314 314 315 317 318 319 320 319 319 318 317 315
339 339 338 338 338 337 338 337 337 337 338 338 338 339 338 338 339 339 339 337 334 319 307 326 335 335 336 335 336 336 335 336 334 333 331 330 330 328 327 326 325 325 326 331 335 336 336 336 336 337 337 336 334 334 336 337 336 335 335 334 333 330 326 324 324 324 324 323 322 320 318 316 313 312 313 316 319 320 319 319 319 319 318 317 316
339 338 339 338 338 338 338 337 337 337 337 337 337 338 337 338 338 339 338 336 334 317 309 327 335 335 337 336 336 337 337 337 337 337 337 336 336 336 336 336 335 335 335 336 337 336 336 336 336 336 336 335 333 333 335 336 335 335 334 333 331 328 324 324 324 324 324 324 321 318 316 316 314 312 312 315 319 320 319 319 318 317 317 316 316
339 338 338 338 338 338 338 337 337 337 337 337 337 337 337 338 338 338 338 336 334 319 308 322 333 335 336 336 336 336 337 337 337 338 338 338 337 337 338 338 338 338 338 338 337 336 336 336 336 336 335 333 333 333 334 335 334 334 333 331 330 326 324 323 323 323 324 322 318 315 312 312 314 314 314 313 314 317 318 318 317 317 316 315 315
339 338 338 338 338 338 338 337 337 337 337 336 336 337 337 338 339 338 337 336 334 322 310 320 332 335 336 336 337 337 336 337 337 338 338 338 338 338 338 339 338 338 337 337 336 336 336 336 335 335 334 333 332 332 334 335 334 334 333 331 330 326 323 323 323 323 322 318 314 312 308 307 310 313 314 314 313 314 316 316 316 315 316 315 315
339 338 337 337 338 339 338 338 338 337 336 336 336 337 337 338 339 338 337 336 334 325 315 324 334 335 336 336 336 337 337 337 337 338 338 339 339 339 339 338 338 337 337 336 337 337 336 335 334 334 334 332 331 332 334 334 334 333 332 331 329 325 323 324 325 324 319 315 312 308 306 307 307 306 309 313 314 313 313 314 315 314 314 315 315
339 338 337 337 338 338 338 338 338 338 336 336 336 337 337 338 338 338 336 335 334 327 320 327 335 335 335 335 335 336 336 337 337 337 338 339 339 339 339 338 338 337 337 336 337 337 335 335 334 332 332 331 330 331 333 333 333 332 331 330 328 325 324 326 327 323 316 312 310 308 307 306 304 303 306 310 313 312 311 311 312 312 312 312 313
338 337 337 337 337 338 338 338 337 338 337 336 336 336 337 338 338 338 337 335 334 331 323 326 334 335 334 335 336 337 337 336 337 337 338 339 339 339 339 338 337 337 336 336 336 336 335 335 334 331 330 330 330 331 332 332 331 330 331 330 326 324 325 326 323 317 313 311 309 308 307 305 303 304 306 306 308 311 311 309 307 306 307 308 310
338 337 336 336 336 337 338 338 338 337 337 336 336 336 337 338 339 339 338 337 336 335 328 322 327 332 334 335 336 336 337 336 337 338 338 339 339 338 338 338 338 337 336 336 336 335 335 334 333 332 329 329 330 330 330 329 327 328 329 328 325 322 324 323 318 313 311 310 308 306 305 305 305 305 304 304 304 307 308 308 307 306 305 305 306
339 338 337 335 336 336 336 338 338 338 337 336 336 337 338 338 339 339 339 339 338 337 332 321 321 330 334 335 336 336 337 336 337 338 339 339 339 338 338 338 337 337 336 336 336 336 335 333 333 332 329 328 329 330 330 328 326 325 325 323 322 321 321 319 314 312 311 309 308 307 306 306 306 306 304 304 303 302 303 304 306 306 305 303 302
339 338 337 336 336 335 336 337 338 338 337 337 337 337 338 339 339 339 339 339 338 338 335 325 322 330 334 334 335 336 336 336 337 338 339 339 339 338 337 338 337 336 337 337 336 336 334 333 333 331 329 328 329 329 329 328 325 323 321 320 320 320 319 316 313 311 310 309 308 307 307 306 306 307 305 304 302 301 301 303 304 304 305 304 302
340 338 338 337 336 336 335 336 337 338 338 337 338 338 338 339 340 340 339 339 339 339 336 326 322 328 332 334 335 336 336 336 336 337 339 339 338 338 337 337 337 336 337 336 336 335 333 333 333 330 327 327 328 328 328 328 326 324 322 320 318 317 315 314 313 311 309 309 308 307 306 305 306 307 305 305 304 303 302 303 304 304 304 304 304
341 339 339 338 337 336 336 336 336 338 338 337 337 338 339 339 340 340 340 340 339 338 336 328 325 329 333 335 337 338 337 336 336 337 339 339 338 338 337 336 337 336 336 336 336 335 333 333 333 331 327 325 327 328 328 327 326 324 323 322 319 316 314 313 312 311 309 309 308 308 307 306 307 306 306 306 305 305 304 303 304 303 302 303 305
342 340 339 338 338 338 337 336 336 338 339 337 335 337 339 340 340 341 341 340 339 337 336 334 333 335 337 338 339 338 337 336 336 337 338 339 338 338 337 336 336 336 336 336 336 335 334 333 332 331 329 325 324 326 328 325 323 323 323 322 319 318 319 317 313 311 310 309 308 308 307 307 308 306 305 306 306 305 305 304 303 302 301 302 303
342 341 340 339 339 338 338 337 337 339 339 337 335 337 340 340 341 341 341 340 339 338 338 339 338 338 339 339 339 337 336 336 336 337 338 339 338 338 337 336 336 336 336 336 336 334 334 334 332 332 330 327 324 323 325 323 321 323 324 323 320 322 324 319 315 314 310 310 310 308 307 307 307 306 306 306 306 305 305 304 302 301 302 302 303
342 341 340 340 339 338 338 338 338 339 339 338 337 339 340 340 340 341 341 340 340 339 340 340 340 339 339 339 338 337 336 336 336 337 339 338 338 337 336 335 335 335 336 336 335 334 333 333 333 332 331 329 326 323 322 321 319 320 322 324 324 326 325 318 316 317 312 310 310 309 308 307 306 307 307 306 306 305 305 304 303 303 302 302 303
342 341 340 340 339 339 339 339 339 339 339 339 340 340 340 340 340 340 341 341 340 340 340 340 340 339 339 339 337 336 336 336 336 337 338 338 338 337 336 336 335 335 335 335 334 333 333 333 332 332 331 330 328 324 321 320 320 320 320 322 323 324 323 319 319 320 316 312 310 310 310 308 306 307 307 306 306 305 303 303 304 304 302 303 303
341 341 340 340 339 339 339 339 339 339 340 340 340 340 340 340 340 341 341 342 341 341 341 340 340 339 339 338 337 336 336 336 337 338 338 338 337 337 336 336 335 335 335 334 334 333 333 333 332 332 332 330 329 327 324 322 322 323 320 320 322 322 321 320 321 323 323 320 314 311 311 308 306 307 307 306 306 305 303 303 305 304 303 303 303
341 341 340 340 340 339 339 339 340 340 340 340 340 341 340 339 340 341 341 341 341 341 340 339 339 339 339 338 337 336 336 337 337 338 338 338 337 337 336 336 336 336 335 334 334 333 333 332 332 331 331 331 330 329 327 324 324 325 322 321 322 321 319 319 320 322 324 324 319 314 312 310 309 308 306 304 305 305 304 303 304 304 303 303 302
341 341 341 340 340 339 339 339 340 340 340 340 340 340 341 340 341 341 341 341 341 341 340 339 339 339 339 338 337 336 336 337 338 338 338 337 337 337 336 336 336 335 335 334 333 332 331 331 331 331 330 330 330 329 328 327 326 326 324 323 322 321 321 321 320 320 321 323 322 318 314 312 311 310 307 306 305 304 303 303 303 303 303 302 302
342 341 341 341 340 339 339 339 340 340 340 340 340 340 341 342 341 341 341 341 341 340 339 339 339 338 338 338 337 336 336 337 337 337 338 338 338 337 336 335 335 335 334 333 332 331 331 330 330 329 329 329 329 328 328 328 327 326 324 324 324 323 324 324 323 322 322 323 322 320 316 312 311 311 308 307 306 304 303 303 303 303 302 302 302
Wind_Speed
23 26 23 22 22 21 20 19 17 17 16 16 18 19 19 20 21 21 21 20 19 18 19 19 20 19 18 19 20 20 18 17 16 14 14 15 14 14 14 16 17 16 14 13 14 14 14 15 15 15 15 15 16 18 19 19 18 17 17 16 16 16 16 15 15 15 14 13 12 13 13 15 17 16 16 16 17 17 16 17 17 16 16 15 16
27 28 24 22 23 21 20 19 18 18 17 16 17 17 17 20 20 20 19 18 18 17 17 17 18 17 16 16 17 18 18 17 15 14 14 15 15 15 15 16 17 16 14 14 14 15 15 15 15 15 15 16 18 19 19 17 16 16 15 15 14 14 15 15 15 14 14 13 13 13 14 15 16 15 14 14 15 16 15 16 16 15 15 14 15
30 28 23 23 24 21 21 20 19 19 18 17 17 17 18 20 20 19 18 16 16 15 15 14 16 17 16 17 17 17 17 17 15 14 14 15 16 15 14 15 16 16 15 15 15 15 15 15 15 14 15 18 19 18 16 15 14 13 12 12 12 12 12 14 14 14 14 13 13 14 14 15 16 15 15 15 14 15 15 15 14 14 14 14 14
30 26 23 25 24 22 21 20 19 19 19 19 18 17 19 20 19 17 16 16 15 13 13 12 14 16 17 18 18 16 17 17 16 14 14 16 16 15 14 15 16 16 16 16 15 15 15 15 14 13 16 17 16 14 13 12 11 10 9 9 9 10 10 12 13 14 14 14 14 13 13 14 15 15 15 15 14 15 14 14 14 13 13 13 13
28 25 24 25 23 23 22 21 20 20 20 20 19 18 20 20 18 17 16 15 15 13 12 11 13 15 17 19 18 17 17 17 17 14 14 16 16 14 14 15 16 16 16 16 15 15 15 14 13 14 16 15 14 12 11 10 9 8 7 7 8 9 9 10 12 14 14 14 14 12 11 13 13 15 16 14 14 14 13 14 15 15 14 13 13
26 25 25 24 22 23 23 22 20 20 21 20 20 18 19 20 17 17 16 15 14 13 12 12 13 15 18 19 19 18 17 18 18 16 15 16 15 14 16 16 17 17 16 15 15 16 15 14 13 15 15 13 12 11 10 9 7 7 6 6 7 9 10 10 11 13 13 13 13 11 11 12 12 13 15 14 13 13 13 14 15 15 14 14 14
25 26 25 23 23 24 23 23 21 21 21 21 20 17 19 19 17 16 16 15 14 13 13 14 15 15 17 18 19 18 18 18 19 17 16 15 14 14 16 18 17 17 16 15 15 15 14 14 14 15 14 12 12 10 9 8 7 7 7 6 7 10 11 10 11 11 12 11 10 10 10 11 12 12 13 13 13 12 12 13 13 14 14 14 13
25 27 25 23 22 24 24 23 21 22 22 22 20 17 18 18 18 16 15 15 14 13 13 16 16 15 16 17 18 17 18 19 19 17 15 15 15 15 17 18 17 17 16 15 15 15 14 14 15 14 13 12 11 10 8 7 8 8 7 6 8 12 12 11 11 11 12 10 8 9 10 11 12 12 13 13 12 12 11 11 12 12 12 12 11
26 27 25 23 22 25 25 23 22 22 22 23 21 18 17 18 18 15 15 15 14 13 13 16 16 16 16 16 16 16 18 20 20 18 17 17 16 17 17 17 17 16 15 15 15 14 14 15 15 14 13 11 10 9 8 7 7 8 7 7 10 13 13 12 11 11 10 8 8 8 9 10 11 12 12 12 12 12 11 10 10 10 10 10 10
26 25 25 22 23 26 26 24 22 22 22 23 22 18 17 18 18 16 14 14 14 13 13 14 15 16 16 16 16 16 17 19 19 19 20 18 16 18 17 17 16 15 14 14 14 14 15 16 15 14 12 10 10 9 8 7 7 8 8 9 12 14 13 12 12 11 8 8 8 8 10 10 10 11 11 11 11 12 12 10 10 9 9 9 9
24 23 23 21 23 26 26 25 23 22 22 24 22 19 17 17 18 16 14 14 14 13 13 13 14 16 16 14 15 15 16 17 17 18 20 19 18 19 17 16 15 13 13 13 14 14 16 16 15 14 12 10 9 9 8 7 8 9 9 11 14 14 13 13 12 10 8 8 7 8 9 10 10 10 10 10 10 11 11 10 9 9 8 9 8
22 22 21 21 24 26 27 25 23 22 22 24 22 20 18 17 18 17 15 14 14 14 13 12 13 16 16 14 15 16 16 15 15 16 19 19 18 17 17 15 14 13 13 14 15 15 16 15 14 13 11 10 9 9 7 7 8 9 10 13 15 13 13 12 11 10 9 7 7 7 7 8 9 9 9 9 9 10 10 9 9 8 8 9 8
22 22 23 24 24 26 27 25 23 21 21 23 21 20 18 17 18 17 15 14 15 14 13 12 13 16 15 14 18 18 15 14 14 16 19 19 16 16 16 15 14 13 13 15 15 15 15 14 14 13 11 10 9 9 8 7 9 10 11 14 14 13 12 11 11 9 8 7 7 7 6 8 8 8 8 8 9 9 9 9 9 9 9 9 9
23 21 23 25 24 25 26 24 23 21 21 22 21 20 18 17 18 17 15 15 15 14 13 12 12 14 14 14 17 18 15 14 14 16 17 17 15 14 14 14 13 13 14 15 14 14 14 14 13 12 11 9 9 8 8 8 10 11 12 14 13 12 11 11 10 9 8 7 7 6 6 7 7 7 7 7 8 8 8 8 9 9 9 10 10
23 21 23 24 22 23 25 24 23 22 21 22 21 20 19 17 17 17 15 15 15 14 13 12 13 13 13 14 16 17 16 15 14 14 14 13 13 12 12 12 12 13 15 14 13 13 12 13 12 12 10 9 9 9 9 9 10 12 13 13 12 11 10 10 9 8 8 7 6 6 6 7 6 6 7 6 7 7 8 9 10 10 10 10 10
21 20 22 22 20 21 23 23 22 21 21 21 21 20 19 17 17 17 15 15 15 14 13 11 12 13 12 14 16 17 16 16 15 14 12 12 12 11 11 11 11 13 14 14 13 12 11 12 11 11 10 9 9 9 9 10 11 12 13 12 11 10 9 8 8 8 7 7 6 6 6 6 6 6 6 6 6 8 9 10 10 11 11 11 12
18 19 21 21 19 20 21 22 21 21 21 21 21 20 19 18 17 17 15 15 14 13 12 11 11 11 11 12 15 16 16 16 15 13 11 12 11 11 10 10 11 12 14 13 13 12 11 11 10 10 10 9 9 9 9 10 11 11 11 11 10 8 7 7 8 8 7 7 6 6 6 6 6 6 6 6 7 9 10 11 11 11 12 12 12
17 19 20 19 19 20 21 22 22 20 20 20 20 20 19 18 18 17 15 14 14 13 12 11 11 10 8 9 13 15 16 15 13 12 11 11 11 10 10 10 10 12 14 13 13 12 10 10 9 9 9 9 9 9 9 10 11 11 10 9 8 7 7 7 8 8 8 8 6 5 6 6 6 6 7 8 10 11 11 11 11 11 11 11 11
16 18 19 19 20 20 20 23 21 20 20 19 19 19 18 18 17 17 15 14 13 12 11 11 11 10 8 8 10 13 15 13 12 11 10 10 10 9 10 9 10 12 14 13 12 11 10 9 8 8 8 9 9 10 9 9 10 10 10 9 8 7 6 7 8 8 7 7 6 5 6 7 7 8 9 10 11 11 11 11 11 10 10 10 10
15 18 18 18 20 19 21 23 20 20 20 18 18 18 18 17 17 16 15 14 13 12 11 10 10 9 8 8 9 11 12 12 11 11 10 9 10 10 10 9 9 11 14 13 12 11 9 8 8 7 7 8 9 10 10 9 9 9 9 9 8 6 6 7 8 7 7 7 7 6 7 8 8 9 10 11 11 11 11 11 10 9 9 9 8
15 17 18 18 19 20 23 23 20 20 19 19 18 18 18 17 16 16 15 14 13 12 11 10 9 9 9 9 9 10 10 11 11 11 10 9 10 11 10 9 9 11 13 14 12 10 8 7 7 7 7 8 9 10 10 9 9 9 9 9 7 6 6 7 7 7 7 7 7 7 8 9 9 9 10 10 10 10 10 10 9 8 7 6 6
14 16 17 19 19 19 22 22 21 21 20 19 18 17 18 17 15 15 14 14 13 12 11 11 10 10 11 10 9 10 10 10 11 12 10 9 11 11 10 9 9 10 13 14 12 10 8 6 6 6 6 7 8 9 10 9 8 9 9 8 6 5 6 7 8 8 8 8 8 8 9 9 9 10 9 9 9 9 9 9 8 7 7 6 6
16 16 17 19 19 18 20 21 21 22 21 19 18 17 18 17 15 15 15 14 14 12 11 11 11 11 11 11 10 10 10 9 11 13 12 11 11 12 12 9 9 9 12 14 12 10 8 6 6 6 6 7 8 9 10 9 8 9 8 7 5 6 6 7 8 9 8 9 9 9 9 9 9 9 9 8 8 8 7 7 7 6 6 6 6
18 18 17 18 19 19 20 21 20 21 21 20 19 18 18 17 15 16 15 15 14 13 12 11 11 11 10 10 9 9 9 8 10 12 12 11 10 12 12 8 8 9 12 13 11 10 7 6 6 6 6 7 8 9 10 9 9 9 7 6 6 6 6 7 8 9 9 9 9 8 8 8 8 7 8 8 7 7 7 6 5 5 6 6 5
18 19 18 18 19 20 20 20 20 21 22 21 19 18 19 17 15 16 16 16 15 13 12 10 10 10 9 9 9 9 9 9 9 9 10 9 8 10 10 8 7 8 11 12 10 9 7 6 5 6 7 7 8 9 9 9 8 8 6 6 6 6 6 7 8 9 10 9 8 7 7 7 6 6 7 6 6 6 6 5 5 7 7 6 6
19 20 20 20 20 21 20 20 21 22 22 21 19 18 19 17 15 17 17 16 15 12 10 9 9 9 9 9 9 9 9 10 10 9 9 9 8 8 8 8 7 8 10 10 9 8 7 7 6 6 7 7 8 8 9 8 8 7 7 7 7 6 6 7 7 8 9 8 6 6 6 6 5 6 6 6 6 6 4 3 5 6 7 7 8
19 20 21 21 22 22 20 20 21 22 22 21 19 18 18 17 16 17 17 14 12 11 9 9 10 11 11 11 11 12 11 12 11 9 9 8 7 7 6 6 7 9 10 9 8 8 7 7 6 6 6 7 7 7 8 8 8 7 7 8 7 7 7 7 8 7 8 8 6 4 4 5 6 6 6 6 6 4 1 3 4 6 7 8 9
19 20 20 20 22 23 21 20 20 21 21 21 19 16 17 18 18 18 15 13 11 10 10 11 13 14 14 14 14 14 14 14 12 10 8 7 7 8 8 8 9 10 9 9 8 8 7 6 5 5 6 7 7 8 8 8 7 7 8 8 8 7 8 8 8 8 8 9 8 6 5 7 7 6 5 4 4 3 3 5 7 8 9 10 11
20 20 21 21 22 23 22 21 20 20 21 21 18 16 17 20 20 18 14 12 11 11 13 15 16 17 16 16 16 15 15 14 13 11 9 8 8 9 10 10 10 10 9 9 8 8 7 5 4 5 5 6 7 8 8 8 7 7 8 8 8 8 9 9 10 10 10 10 9 7 6 6 5 4 4 4 4 6 7 9 10 11 12 12 12
21 21 21 21 21 22 23 22 20 19 20 20 18 16 18 21 21 17 13 11 12 14 17 18 19 19 18 17 16 15 15 14 13 12 11 10 10 10 10 10 9 9 8 8 8 7 6 5 4 5 5 6 7 9 9 8 7 7 7 8 8 8 10 11 12 11 11 11 10 8 6 5 4 4 4 5 6 8 10 11 11 11 12 12 13
21 22 22 21 21 22 23 23 21 19 19 19 18 17 18 21 20 17 13 12 13 16 20 21 21 20 18 18 17 15 15 14 13 12 11 10 9 9 9 9 8 8 8 7 7 6 5 5 5 5 5 6 7 10 10 8 8 8 8 8 9 10 12 13 12 11 10 10 9 8 5 4 3 4 5 7 9 10 12 12 12 11 12 12 12
22 23 22 20 20 22 22 22 22 21 20 19 18 18 19 20 19 17 13 12 13 18 22 23 22 20 19 18 16 15 14 13 12 11 10 9 8 8 7 7 7 7 7 6 6 5 4 4 5 5 5 6 8 10 9 7 8 9 9 9 10 13 14 13 12 10 9 7 7 7 5 4 4 5 6 9 11 11 11 12 12 12 12 12 12
22 22 22 21 19 19 20 21 21 22 22 21 19 19 20 20 18 16 14 13 15 19 23 24 23 20 19 18 16 15 13 12 12 11 10 8 8 7 6 6 6 6 7 6 6 5 5 5 5 5 6 7 9 11 9 8 8 9 9 10 13 15 14 13 11 9 7 5 5 6 6 6 6 6 7 9 11 11 11 11 11 11 11 11 11
20 20 22 22 18 16 18 20 22 23 21 21 20 20 21 20 17 14 15 15 16 20 24 25 23 21 19 17 16 14 13 12 11 10 10 9 8 7 6 5 6 6 6 6 6 6 6 5 6 7 7 8 10 12 10 8 8 9 10 13 15 16 15 13 11 9 6 5 5 5 5 5 6 7 8 8 9 11 11 11 10 10 10 10 10
20 20 26 25 20 17 18 19 23 24 22 22 21 21 21 19 16 13 16 16 16 21 24 25 23 21 19 17 16 14 13 11 10 10 10 9 8 7 7 6 6 6 6 6 6 6 6 6 7 8 9 9 10 12 10 7 9 9 11 15 16 16 15 12 10 7 5 5 5 4 4 5 6 7 8 8 9 10 11 11 10 9 9 9 9
23 24 28 26 20 18 19 19 22 24 24 23 22 21 21 19 15 13 16 17 17 21 24 25 24 22 20 18 16 15 13 11 10 10 10 9 8 7 8 7 7 6 6 7 6 6 7 8 8 9 10 10 11 12 9 7 9 10 12 17 17 15 14 11 7 5 4 5 4 4 5 6 6 7 8 8 8 9 10 10 9 9 8 8 7
26 27 29 26 22 20 20 19 21 23 24 23 23 23 22 19 15 14 17 19 19 22 24 26 24 22 20 18 17 16 14 12 11 11 10 9 7 7 8 8 7 6 7 7 7 7 8 9 10 10 10 10 11 12 9 8 9 10 14 18 17 15 13 9 6 6 6 5 4 5 6 7 7 7 8 8 8 7 8 8 9 8 8 7 6
29 29 29 29 27 24 20 20 21 22 22 23 23 24 22 18 15 14 17 19 20 22 24 26 26 23 21 19 18 17 15 12 12 11 10 9 8 8 8 8 8 7 8 8 8 10 10 10 11 11 10 10 12 13 11 9 9 12 16 17 16 15 12 9 8 8 7 5 5 7 7 7 8 8 8 7 7 7 6 7 8 7 7 6 5
30 29 29 29 30 27 23 20 21 22 23 22 23 23 21 18 15 14 16 17 17 21 24 26 27 25 22 20 18 17 16 14 12 12 11 10 9 9 9 9 9 9 9 9 9 11 12 12 12 12 11 11 12 14 13 11 11 14 17 16 15 14 11 9 9 8 7 5 6 7 7 8 8 8 8 8 7 7 7 7 7 6 7 8 7
32 31 30 29 30 30 27 21 20 22 23 22 22 22 21 19 17 15 16 15 14 17 23 26 27 27 24 21 19 18 17 15 14 13 11 10 10 10 10 11 11 10 10 10 10 11 12 14 13 13 13 12 13 14 14 14 15 15 15 16 15 13 10 9 9 9 8 6 7 7 7 7 7 7 7 7 8 8 9 9 8 7 6 7 8
30 32 31 31 31 32 31 26 22 22 24 24 23 23 23 20 18 18 17 16 15 14 20 26 28 27 25 21 20 18 17 17 15 14 13 11 11 10 11 12 12 11 10 11 12 12 13 14 13 14 14 14 15 15 16 17 17 14 12 12 12 11 10 10 10 9 9 8 8 7 7 7 7 7 6 7 8 8 10 9 8 7 5 5 5
32 35 35 34 34 34 34 32 28 25 25 26 24 24 23 20 18 18 17 17 16 16 20 26 28 27 25 23 21 19 19 19 17 16 14 13 12 12 13 14 13 12 12 13 14 13 14 14 14 15 15 16 17 18 19 16 12 11 11 9 7 7 7 8 10 11 11 10 9 8 7 7 7 7 6 6 7 7 7 8 7 6 5 4 2
32 34 35 35 36 35 36 36 33 28 26 26 26 24 21 19 17 15 16 16 16 19 24 27 27 26 25 23 22 21 21 21 19 17 16 15 14 13 12 14 13 13 15 15 14 14 16 16 16 16 16 16 16 20 22 14 8 11 11 7 5 4 4 6 9 11 12 12 10 9 8 7 7 7 7 6 6 6 6 6 6 6 5 3 1
28 30 34 36 38 39 39 39 36 30 26 28 27 24 20 18 17 15 15 15 18 24 26 26 26 26 24 23 22 22 22 21 20 18 17 15 14 12 11 13 13 13 17 17 14 15 17 17 17 17 17 16 14 19 23 16 12 13 7 3 4 4 4 5 8 10 12 13 12 11 9 9 9 8 8 6 5 5 6 6 6 6 4 3 0
28 33 39 42 42 42 42 41 38 31 28 30 29 24 21 19 19 16 15 15 19 23 23 23 24 23 21 22 21 22 23 21 20 19 17 15 13 13 12 13 14 15 18 18 16 17 18 17 18 18 18 17 15 19 22 18 16 15 7 3 3 3 3 6 8 7 10 12 12 13 11 10 10 9 8 7 6 5 6 6 7 6 4 2 1
31 39 44 46 46 44 42 42 41 36 31 32 29 23 22 23 22 20 19 19 19 21 22 21 20 19 18 19 20 22 23 22 21 20 17 14 13 13 13 13 14 16 18 19 18 18 18 18 18 18 18 19 17 19 20 19 18 17 12 7 5 3 2 7 6 4 8 10 10 12 12 12 12 10 9 8 6 6 6 6 7 5 3 3 2
35 43 45 44 44 43 41 42 43 40 34 31 27 24 24 25 24 24 22 22 23 21 20 19 19 18 17 19 21 22 24 22 21 21 17 14 15 14 13 14 15 17 18 19 19 18 18 18 18 18 18 19 19 18 19 19 18 17 16 11 7 5 5 8 5 2 5 7 9 11 11 12 13 10 9 8 7 6 6 6 5 4 4 3 3
40 41 41 42 43 43 42 42 42 42 39 34 30 27 27 27 26 26 24 24 24 21 19 19 21 20 18 19 21 22 25 23 22 22 17 15 16 14 14 14 16 17 18 19 19 18 18 17 17 18 19 20 20 19 18 20 17 16 17 14 8 7 9 9 7 6 4 4 7 9 10 12 13 11 10 8 7 6 6 5 5 4 4 4 4
39 37 39 40 40 39 38 38 39 41 42 40 35 29 29 30 28 27 26 25 23 21 21 20 20 20 20 21 21 23 25 23 22 21 18 17 17 15 15 15 17 18 19 19 19 17 17 17 17 19 20 20 22 21 19 21 20 16 18 16 10 8 10 9 8 8 5 4 5 7 9 11 10 10 11 10 8 7 6 6 5 4 4 4 4
32 32 33 33 33 33 33 35 38 39 42 44 41 34 29 29 28 27 27 25 23 20 19 19 19 20 21 21 22 24 25 24 22 20 19 20 18 16 16 16 17 19 20 20 19 18 17 17 17 18 19 20 22 22 21 21 21 19 19 18 13 10 9 8 8 8 5 5 5 4 9 11 9 8 9 8 7 7 7 6 6 5 4 4 4
25 24 25 26 29 31 32 35 37 36 38 42 45 40 32 28 29 29 27 26 25 21 19 20 20 20 20 20 22 24 24 23 22 22 22 21 19 17 17 17 18 19 20 20 19 17 16 16 16 17 18 20 20 21 22 22 21 21 21 19 15 13 12 10 9 9 8 6 5 4 7 9 8 7 8 7 7 7 7 6 6 6 5 4 4
Wind_Direction
176 172 168 173 173 173 170 169 166 165 163 153 152 150 150 151 149 149 147 148 149 151 152 153 151 149 148 149 148 144 141 135 126 126 126 123 123 121 119 117 116 114 110 110 108 106 104 102 103 102 100 101 99 97 94 90 88 85 84 82 82 86 89 89 88 88 88 88 87 83 79 72 67 68 69 66 64 62 62 63 62 56 55 54 52
170 171 167 172 174 173 171 169 167 167 162 154 152 149 150 150 148 146 145 145 146 149 153 158 158 153 147 147 146 143 140 135 130 132 132 128 125 121 120 118 118 117 113 111 108 106 105 103 104 102 102 104 102 98 93 88 85 82 80 77 76 79 84 89 90 91 93 94 91 86 81 75 70 70 70 66 63 62 60 62 63 59 57 56 55
164 167 166 172 175 173 171 170 169 166 159 155 151 150 154 151 149 145 143 142 141 144 148 157 161 157 148 146 147 145 142 139 135 134 134 131 125 121 121 119 120 120 115 111 108 108 107 106 105 102 105 108 104 97 91 86 85 83 81 81 79 78 80 87 93 96 97 97 94 88 81 76 73 71 69 66 63 62 62 63 64 63 61 59 57
161 164 166 170 174 173 172 171 169 165 159 156 151 154 157 154 151 146 142 140 139 140 144 152 156 157 149 147 149 146 144 140 136 135 134 129 124 121 121 121 123 122 117 113 112 112 110 109 106 103 106 107 102 95 91 87 84 81 81 85 88 89 86 86 92 97 98 99 96 89 83 79 75 71 70 68 66 64 64 64 63 64 63 62 61
159 163 164 167 172 174 174 170 169 168 161 155 153 159 160 155 153 146 143 141 139 139 141 142 143 150 149 148 148 144 142 138 138 136 128 125 126 123 122 123 124 122 119 116 116 115 113 112 108 107 109 106 102 97 94 90 83 76 79 88 96 103 101 95 95 98 100 99 94 89 87 85 80 73 70 70 70 68 66 63 59 58 57 58 59
159 163 162 164 170 175 175 171 171 170 161 155 155 162 162 158 155 148 145 142 138 137 136 132 130 142 146 146 147 144 142 140 140 135 127 128 129 127 125 124 124 123 119 118 119 116 116 115 110 112 113 109 105 102 99 94 86 78 83 95 105 115 114 105 100 100 100 96 92 90 88 85 85 77 72 72 71 72 67 63 61 60 58 58 57
158 161 161 164 168 175 176 171 174 170 161 157 157 162 165 161 155 149 147 143 137 136 134 134 131 137 142 145 147 146 144 143 140 137 137 135 131 129 127 127 126 124 121 119 119 118 120 116 114 118 115 112 110 106 102 95 87 77 84 102 113 123 123 113 105 103 99 95 93 91 89 85 87 82 75 73 72 72 70 67 67 66 65 65 64
159 161 162 165 167 174 176 173 176 170 161 158 158 163 167 164 158 150 149 144 137 136 134 135 134 136 141 144 147 148 146 145 142 140 142 137 132 129 129 130 128 125 123 121 120 121 121 120 123 122 117 115 112 107 103 94 86 74 79 104 118 125 125 117 112 106 99 99 98 92 89 85 85 84 77 75 72 70 70 68 66 66 64 66 69
161 161 162 166 168 174 176 175 177 169 163 160 158 165 168 168 160 150 150 145 139 137 136 137 135 137 139 142 144 146 148 148 145 143 143 140 136 131 131 133 128 126 124 126 127 125 124 128 129 124 120 117 110 105 101 93 86 74 75 103 122 124 121 117 114 109 104 104 100 91 88 84 83 84 80 77 73 69 69 67 64 63 60 61 67
160 162 165 166 169 175 176 176 177 170 166 161 159 166 170 171 161 151 153 147 140 137 137 139 140 140 140 142 144 144 147 150 149 147 144 140 139 134 134 134 130 129 126 129 129 125 128 134 131 125 123 116 109 104 100 94 84 76 77 106 123 121 117 114 112 112 114 111 102 93 85 84 85 85 82 77 70 66 66 67 66 64 60 60 60
161 163 165 167 170 175 176 176 176 172 168 161 160 167 172 175 163 153 156 149 144 140 138 140 144 146 142 143 146 146 149 152 150 150 147 140 143 139 135 135 132 131 130 129 125 126 133 136 131 127 124 115 109 104 101 93 84 81 86 111 123 119 114 112 114 118 119 112 104 96 83 82 85 85 85 76 67 63 62 62 63 63 61 61 58
163 164 166 167 171 178 177 176 174 172 170 164 163 168 173 177 163 155 160 153 149 144 139 140 145 147 144 145 150 152 152 152 147 150 154 149 149 144 138 138 135 134 134 131 127 132 137 135 131 128 123 113 108 105 104 95 89 89 98 117 124 119 114 112 117 120 116 111 103 97 85 83 84 84 85 74 65 63 63 65 66 65 63 61 60
163 166 169 166 172 180 178 176 172 171 172 168 166 169 173 177 165 158 162 157 153 148 144 143 146 148 147 149 154 157 153 150 144 145 155 156 156 151 145 142 140 138 135 131 131 136 137 134 131 127 122 112 106 105 103 98 96 99 108 121 126 121 115 112 115 116 114 110 102 95 82 82 83 81 82 70 63 65 66 68 70 71 69 66 65
162 166 168 165 172 181 180 176 171 172 174 171 169 171 174 176 167 161 165 160 154 152 152 147 147 150 150 153 157 159 157 151 146 145 153 158 158 157 152 147 144 140 134 132 134 139 137 134 129 125 120 110 105 102 101 100 103 109 116 123 125 121 114 110 109 112 111 107 104 93 80 80 81 79 78 70 68 69 68 70 74 75 73 72 69
162 164 166 165 172 180 183 177 172 174 176 173 171 173 175 176 170 164 167 163 156 158 160 153 149 150 152 159 160 162 163 158 152 151 158 162 160 159 157 150 146 141 136 137 139 141 139 133 128 124 118 110 105 100 102 102 108 116 120 124 125 120 112 108 108 110 107 105 103 91 79 78 79 79 77 71 69 69 72 76 78 78 75 74 72
162 162 165 167 170 177 182 178 175 177 176 175 174 176 176 176 172 167 170 166 160 163 164 159 154 151 152 162 167 167 168 167 162 157 161 167 164 161 158 151 148 143 142 143 145 145 141 133 127 123 116 110 106 104 105 105 112 121 124 125 124 117 106 104 107 107 105 106 103 91 81 78 77 79 80 72 68 72 80 83 82 83 80 78 76
160 162 166 169 172 174 178 178 179 180 178 178 178 179 179 178 173 170 173 169 164 166 167 164 157 154 153 160 169 173 172 171 169 163 165 170 169 167 161 155 151 147 149 150 150 149 142 133 127 123 116 112 110 108 110 110 114 123 129 128 123 114 100 99 104 105 105 105 101 91 81 81 78 80 86 76 77 83 87 87 86 86 84 81 78
161 165 169 172 173 174 178 178 179 182 180 181 184 183 181 180 175 172 175 172 169 169 168 165 159 157 156 159 167 175 176 172 172 170 173 178 176 172 166 160 156 153 155 157 155 153 144 133 128 123 117 115 116 116 115 116 117 123 131 132 126 113 101 98 102 104 101 97 93 84 80 86 83 83 87 84 90 92 90 90 88 86 85 81 76
167 169 172 176 176 176 178 178 178 181 181 183 186 186 185 183 178 173 175 175 174 175 172 168 164 165 164 161 162 170 173 172 174 172 178 191 186 177 169 164 162 159 160 162 161 156 146 136 132 127 121 121 123 123 121 121 122 124 128 131 128 119 109 100 99 100 93 88 85 81 80 86 88 89 93 94 96 94 92 92 89 86 85 82 74
172 174 178 180 179 180 179 178 180 182 182 185 186 186 188 186 180 175 177 178 178 179 175 173 173 171 168 161 157 161 165 167 170 170 177 192 183 174 172 171 170 164 164 167 165 159 149 141 137 134 129 129 130 129 127 126 124 125 126 127 129 126 113 100 96 93 88 85 83 85 85 89 94 96 99 99 97 95 95 92 88 87 85 81 70
178 182 183 182 183 185 183 180 182 184 182 185 185 186 188 185 181 178 178 179 180 182 179 178 179 175 169 164 159 158 160 163 166 167 173 184 179 174 172 178 183 171 169 170 168 163 154 148 145 144 141 138 137 133 130 130 128 127 125 126 126 119 105 100 99 93 89 85 85 89 90 94 98 98 99 98 95 95 95 93 90 84 77 67 57
183 186 187 187 187 186 186 184 185 186 183 186 186 184 185 183 182 180 180 180 180 183 183 183 183 178 172 168 167 166 162 163 166 165 168 177 182 183 178 184 192 178 175 174 171 168 160 158 156 154 152 147 144 137 134 134 130 128 126 125 118 104 101 104 104 97 91 89 92 96 96 98 100 99 96 94 94 94 95 93 88 77 66 49 34
187 189 190 191 190 188 189 188 187 188 186 187 188 185 183 183 183 182 181 181 181 185 189 188 185 181 176 171 172 171 166 164 167 169 175 181 185 190 186 188 194 184 179 177 173 172 167 169 167 160 158 153 149 142 139 139 135 134 130 122 109 103 107 105 102 97 93 93 97 99 100 100 99 97 92 90 90 90 92 94 88 72 53 32 19
191 191 190 192 193 192 191 190 190 190 190 189 188 185 183 184 185 185 184 182 184 190 193 192 186 184 180 173 172 170 167 165 165 171 181 185 188 194 194 191 193 188 180 177 176 175 174 175 171 163 160 153 150 147 146 147 145 141 133 122 115 112 112 105 103 100 96 96 100 102 102 99 92 86 83 85 84 86 90 92 77 40 26 22 30
192 192 192 194 195 195 193 193 193 192 193 191 187 184 184 185 187 187 187 187 190 192 193 192 187 185 182 176 173 167 166 168 163 166 175 180 181 188 193 190 190 186 177 176 178 178 177 173 163 157 159 152 149 151 152 156 155 146 138 132 124 119 114 106 105 104 102 100 104 107 105 101 87 74 73 76 82 92 90 68 25 14 26 43 59
191 195 196 196 196 197 196 195 196 195 195 194 188 185 185 185 189 190 190 191 192 192 189 187 186 184 181 178 174 168 169 172 167 165 170 174 176 178 182 183 182 174 171 174 176 177 176 170 159 154 158 154 151 152 153 161 163 152 146 141 130 125 119 111 107 106 105 103 111 120 113 104 87 73 71 76 85 91 77 9 3 27 51 65 73
192 197 197 196 197 197 198 197 199 198 196 196 190 186 188 187 190 193 192 190 189 190 188 185 186 182 178 177 172 169 169 172 172 169 169 169 174 175 173 172 167 165 168 169 170 172 172 168 163 156 154 155 155 154 155 163 163 153 150 145 135 130 124 119 115 109 105 101 108 128 120 103 94 87 87 96 100 90 34 5 41 65 74 78 82
193 198 197 197 198 197 197 199 201 199 198 197 192 189 190 190 193 194 191 188 188 190 189 186 183 177 175 172 169 167 166 168 170 170 169 170 173 170 165 163 161 163 167 166 166 168 169 168 166 161 157 158 160 160 160 162 157 152 152 146 138 133 127 124 122 118 113 104 104 115 115 105 101 98 100 108 103 76 60 71 82 86 88 89 87
194 195 195 198 200 197 197 200 201 201 200 198 195 192 192 193 195 193 190 189 191 192 189 185 178 173 170 167 165 164 162 163 165 166 168 169 170 167 163 163 163 164 166 167 167 166 168 170 170 168 166 166 166 166 166 162 155 153 152 146 139 134 131 131 130 126 121 113 109 110 109 100 96 96 97 95 88 84 84 88 91 91 92 91 89
195 193 194 197 198 197 199 201 200 201 201 200 198 195 196 197 195 193 191 190 194 193 188 182 176 172 168 163 160 158 157 156 158 162 166 168 170 170 167 168 169 169 170 173 171 169 171 175 177 177 176 177 175 175 173 162 155 156 150 147 142 137 138 138 135 129 121 116 111 108 99 79 78 88 99 99 94 95 98 99 96 93 93 90 88
195 194 195 196 196 196 199 201 200 200 201 201 201 198 198 199 196 193 193 193 194 192 187 182 177 173 168 163 159 157 155 154 155 158 162 166 168 171 172 174 177 178 179 180 180 182 184 185 187 185 184 185 183 182 176 161 156 156 151 150 146 144 147 144 137 129 120 114 110 103 88 62 70 94 103 104 102 102 102 103 101 99 97 94 91
195 194 195 194 195 195 198 200 200 200 202 204 203 201 201 201 198 195 195 194 195 192 187 183 178 175 172 168 164 162 161 158 158 162 165 169 169 171 173 177 184 185 188 191 194 198 197 201 198 188 186 189 192 187 171 160 161 156 153 154 151 151 151 145 137 127 115 110 110 103 89 78 85 103 110 107 105 104 102 102 103 103 100 98 95
199 197 195 192 193 195 196 198 200 201 203 205 205 203 202 203 201 198 197 194 195 194 189 185 182 179 176 173 171 169 166 164 164 167 173 178 180 180 182 189 196 198 203 208 210 209 202 205 199 187 186 187 194 189 168 162 167 158 156 154 152 155 152 146 142 131 117 110 111 105 100 100 99 107 117 119 115 110 108 106 105 104 103 101 96
198 197 197 194 193 194 195 198 200 202 203 204 207 206 204 204 203 201 200 197 197 197 193 189 186 183 181 177 176 175 174 172 173 176 180 187 191 196 204 213 218 213 212 214 212 204 195 201 198 187 185 187 194 188 170 164 167 160 157 156 157 159 156 152 147 137 127 119 115 105 105 113 112 112 115 123 125 119 114 112 109 107 105 102 95
200 200 203 200 196 194 195 198 199 201 204 205 207 208 207 206 204 203 202 199 198 199 195 192 189 187 186 183 182 182 183 181 180 185 188 193 198 205 218 228 229 218 212 210 204 195 191 198 199 192 186 185 188 180 167 165 166 159 157 160 163 162 159 156 146 137 132 122 117 105 107 120 125 124 121 121 122 122 119 114 112 112 109 105 96
205 206 207 202 197 197 198 198 198 199 201 204 207 210 210 209 206 204 203 201 201 201 198 194 191 189 190 190 189 188 191 189 188 192 195 200 201 210 224 231 227 215 206 201 194 190 192 197 198 195 189 184 180 171 161 165 163 155 160 164 167 167 163 156 150 156 151 133 119 107 113 124 130 133 131 128 126 129 131 124 117 114 112 109 100
208 208 208 201 196 199 201 201 200 199 199 201 205 209 212 212 210 206 206 204 203 203 201 197 193 192 194 195 193 193 195 194 194 198 200 206 210 217 228 228 219 213 205 195 190 191 193 197 196 193 193 190 180 168 157 162 161 152 163 168 168 171 168 163 175 182 160 141 121 115 124 130 129 127 130 132 132 135 141 143 139 129 121 114 106
208 209 208 205 202 199 199 202 203 202 201 199 201 208 212 212 210 209 209 208 207 207 204 201 198 197 198 198 196 197 200 198 199 201 203 210 216 222 228 222 218 215 205 194 193 196 194 198 198 191 191 190 182 172 160 154 154 156 165 170 170 171 172 173 179 172 156 143 129 128 132 130 126 124 125 129 134 138 146 153 149 136 125 115 109
206 207 208 207 205 201 199 200 202 204 205 202 201 206 211 212 210 208 210 209 209 209 207 205 204 203 202 201 200 201 204 203 201 203 205 213 217 220 222 220 220 214 202 196 194 196 193 195 198 193 187 187 185 178 165 146 143 156 162 166 171 171 170 177 175 163 158 153 140 138 135 131 127 123 120 121 129 138 145 146 140 130 120 113 112
204 204 205 206 205 203 201 199 200 203 204 204 203 205 209 211 208 206 208 209 208 209 209 207 206 207 206 203 203 205 209 207 205 206 208 215 218 219 219 220 219 209 200 200 196 193 195 195 196 194 187 184 182 178 171 153 140 145 153 158 167 172 173 177 175 169 168 165 156 149 144 141 131 123 121 120 123 127 132 135 133 131 123 114 111
201 201 202 204 205 205 204 200 200 201 202 203 203 205 206 206 205 205 205 205 205 204 207 208 207 208 208 207 207 209 214 212 209 208 209 215 218 218 217 217 215 206 203 206 202 197 197 198 194 191 189 182 174 170 168 155 138 134 142 149 158 172 181 181 180 180 179 174 170 166 158 155 144 132 130 126 126 124 126 131 132 131 128 118 107
198 200 201 203 204 207 207 204 202 201 202 202 202 206 208 206 204 205 205 205 204 203 206 207 208 210 211 211 213 215 218 216 212 211 212 216 218 217 215 214 212 205 205 207 206 203 200 200 194 186 185 182 178 174 167 157 145 144 146 145 148 166 181 188 191 191 189 186 184 181 174 166 161 156 151 142 140 137 134 139 138 135 132 121 103
196 197 200 202 203 205 207 207 205 203 203 203 204 206 208 208 206 208 207 205 206 208 210 209 208 212 214 216 219 219 219 216 213 213 214 217 218 215 212 212 209 204 205 203 201 205 203 201 197 191 184 180 181 180 175 170 160 150 147 155 165 169 181 196 203 202 198 197 195 192 188 184 180 177 174 166 159 157 155 153 148 146 141 130 108
193 193 198 201 204 205 206 207 207 204 203 206 206 205 207 209 209 211 209 208 214 215 214 213 212 215 218 220 221 220 217 214 213 213 213 215 215 209 207 210 207 203 205 202 197 203 204 200 199 199 191 180 176 181 184 186 174 157 151 150 158 185 215 196 195 203 203 203 205 203 200 196 196 196 193 189 180 174 171 169 168 165 159 154 143
192 196 200 203 206 206 206 207 207 206 204 207 207 203 203 206 207 210 209 210 216 214 211 212 212 214 216 218 219 217 214 213 213 213 211 211 210 207 210 212 209 205 205 204 204 206 205 202 201 203 201 191 184 184 189 195 189 179 174 144 152 224 230 171 174 193 202 207 210 208 209 207 205 207 206 200 195 189 186 186 187 184 185 199 258
196 202 205 206 207 207 206 205 206 205 205 207 204 199 200 203 204 205 204 204 206 207 205 205 204 206 210 214 215 214 213 212 213 212 209 207 209 209 211 212 209 206 204 205 209 209 206 204 205 207 209 207 199 190 192 199 197 195 196 194 217 258 147 151 166 181 190 204 213 209 212 215 212 211 211 208 202 196 190 191 196 198 209 234 254
202 205 206 206 206 207 206 205 204 203 204 205 201 198 200 202 205 207 207 207 208 209 206 202 200 202 206 211 212 213 213 213 213 211 208 209 212 212 211 210 208 207 206 207 209 210 208 209 211 213 215 217 210 199 197 200 200 205 211 213 226 231 168 163 178 177 178 199 209 209 212 214 213 213 212 208 200 196 193 189 194 207 224 241 250
206 204 202 204 205 206 206 204 203 202 203 205 202 200 202 202 206 211 210 210 212 211 205 203 205 205 206 210 211 212 213 213 213 211 208 211 213 212 211 208 207 208 207 209 210 209 210 212 215 218 221 223 220 214 208 205 205 209 215 216 220 212 192 187 196 208 228 217 193 199 210 212 213 213 210 204 196 197 197 188 183 193 216 233 244
208 204 202 204 204 204 204 203 203 203 203 207 205 202 204 205 207 209 210 211 212 211 208 206 206 206 208 210 212 213 212 211 210 210 209 213 215 214 212 208 207 209 209 210 213 212 212 214 218 221 224 226 227 226 222 219 218 216 214 214 212 202 199 206 208 207 238 255 206 186 189 198 209 213 211 205 200 200 195 192 187 184 204 224 240
209 206 203 202 201 202 202 202 204 204 204 206 206 204 204 205 206 207 208 209 208 208 207 203 202 205 207 209 210 211 210 208 207 208 211 214 216 215 213 209 207 209 211 212 214 214 215 219 224 227 230 231 232 233 231 231 231 228 223 216 207 201 201 211 210 201 218 245 245 201 180 189 195 193 199 197 191 192 190 192 187 179 195 216 233
208 206 199 197 200 201 201 202 204 205 203 204 206 206 205 204 207 208 207 207 205 201 199 200 200 202 205 205 207 208 208 207 206 207 211 213 214 214 213 209 207 208 212 214 214 216 219 225 230 234 236 236 238 238 236 236 236 235 232 223 214 213 215 223 219 209 216 227 238 222 185 189 189 169 170 173 171 176 176 176 176 178 193 210 233